Billings, MT (59101)

5:59 PM MDT on August 31, 2016 (GMT -0600)
Jupiter Sulphur | | Change Station

Elev 3114 ft 45.78 °N, 108.49 °W | Updated 10 minutes ago

Partly Cloudy
Partly Cloudy
97.2 °F
Feels Like 93 °F
N
12.0
Wind Variable Wind from ESE
Gusts 15.0 mph

Today
High -- | Low -- °F
--% Chance of Precip.
Yesterday
High -- | Low -- °F
Precip. -- in
Pressure 29.78 in
Visibility 10.0 miles
Clouds Few 11000 ft
Heat Index 93 °F
Dew Point 42 °F
Humidity 15%
Rainfall 0.00 in
Snow Depth Not available.
6:34 AM 7:52 PM
Waning Crescent, 0% visible
METAR KBIL 312353Z 13012KT 10SM FEW110 35/02 A2991 RMK AO2 SLP085 T03500022 10372 20289 56016
Pressure 29.78 in
Visibility 10.0 miles
Clouds Few 11000 ft
Heat Index 93 °F
Dew Point 42 °F
Humidity 15%
Rainfall 0.00 in
Snow Depth Not available.
6:34 AM 7:52 PM
Waning Crescent, 0% visible
METAR KBIL 312353Z 13012KT 10SM FEW110 35/02 A2991 RMK AO2 SLP085 T03500022 10372 20289 56016

10-Day Weather Forecast

Almanac

Astronomy

Aug. 31, 2016 Rise Set
Actual Time
Civil Twilight
Nautical Twilight
Astronomical Twilight
Moon
Length of Visible Light
Length of Day
Tomorrow will be .
, % of the Moon is Illuminated

Today's Extremes

State Highs State Lows

Community

WunderPhotos

Upload Photos

1,936,215 photos uploaded!

WunderBlog® & News

Nearby

Air Quality

  Air Quality AQ Index Pollutant
Not available.

Snow Depth

Station Depth Elevation

Earthquake Activity

City Distance Mag. Time & Date
Minimum magnitude displayed is 2.5.

Coastal Water Temperatures

Place Temperature

Stations

Nearby Weather Stations

Station Location Temp. Windchill Dew Point Humidity Wind Precip. Elev Updated Type
                   

Watches & Warnings

There are currently no watches in effect.